Regional Weather Roundup
Issued by NWS

Home | Current Version | Previous Version | Graphics & Text | Print | Product List | Glossary On
Versions: 1 2 3 4 5 6 7 8 9 10 11 12 13 14 15 16 17 18 19 20 21 22 23 24 25 26 27 28 29 30 31 32 33 34 35 36 37 38 39 40 41 42 43 44 45 46 47 48 49 50
577
ASUS43 KDTX 072010
RWRMI
MICHIGAN HOURLY REGIONAL WEATHER ROUNDUP
NATIONAL WEATHER SERVICE DETROIT/PONTIAC MI
300 PM EST SUN FEB 07 2016

NOTE: "FAIR" INDICATES FEW OR NO CLOUDS BELOW 12,000 FEET WITH NO
SIGNIFICANT WEATHER AND/OR OBSTRUCTION TO VISIBILITY.

MIZ047>049-052>055-059>063-066>070-074>076-081>083-072100-
SOUTHEAST LOWER MICHIGAN

CITY           SKY/WX    TMP DP  RH WIND       PRES   REMARKS
ADRIAN         CLOUDY    46  31  55 SW17G25   29.78F
ALMA           MOSUNNY   45  32  60 S15       29.69F
ANN ARBOR      CLOUDY    47  31  53 S15G22    29.77F
BAD AXE        PTSUNNY   44  33  65 S14       29.73F
CARO           CLOUDY    47  29  49 S9G16     29.71F
DETROIT CITY   PTSUNNY   46  29  51 S13G22    29.80F
DETROIT        CLOUDY    49  30  48 S18G29    29.80F
FLINT          CLOUDY    49  28  44 S14G21    29.73F
GROSSE ILE     MOSUNNY   45  36  70 S9        29.79F
HILLSDALE      CLOUDY    44  29  55 S14       29.74F
HOWELL         CLOUDY    46  28  50 S16G22    29.72F

CITY           SKY/WX    TMP DP  RH WIND       PRES   REMARKS
JACKSON        CLOUDY    47  27  45 S21G29    29.72F
LAMBERTVILLE   CLOUDY    48  31  52 SW12G21   29.80F
LANSING        CLOUDY    46  29  51 SW17G26   29.72F
LAPEER         FAIR      46  29  51 S16G23    29.74F
MASON          CLOUDY    45  30  55 S8        29.72F
MONROE         CLOUDY    49  31  50 SW14G23   29.79F
MT. CLEMENS    PTSUNNY   43  33  67 S15       29.78F
PONTIAC        CLOUDY    45  28  51 S12       29.75F
PORT HOPE        N/A     42  32  67 S10       29.72F
PORT HURON     CLOUDY    43  32  65 S13G23    29.80F
TRI CITIES     MOSUNNY   46  30  53 S10       29.70F
MIDLAND        FAIR      45  30  55 S12       29.69F
TROY           PTSUNNY   49  29  45 S14       29.79F
SAGINAW HB     CLOUDY    45  32  61 S16       29.70F
$$
MIZ043>046-050>051-056>058-064>065-071>073-077>080-072100-
SOUTHWEST LOWER MICHIGAN

CITY           SKY/WX    TMP DP  RH WIND       PRES   REMARKS
BATTLE CREEK   CLOUDY    45  29  53 S21G31    29.71F
BENTON HARBOR  CLOUDY    44  30  57 SW15      29.73F
BIG RAPIDS     CLOUDY    41  30  65 SW8G16    29.65S
COLDWATER      CLOUDY    45  30  56 S13G20    29.73F
FREMONT        CLOUDY    39  31  72 SW16G23   29.67F WCI  31
HOLLAND        CLOUDY    43  31  62 SW22G30   29.70F
GRAND RAPIDS   CLOUDY    45  30  55 SW16G23   29.69F
IONIA          FAIR      44  30  57 S12       29.69F
KALAMAZOO      PTSUNNY   46  30  53 S14       29.71F
LUDINGTON      MOSUNNY   39  32  76 S16G24    29.64F WCI  30
MARSHALL       CLOUDY    46  30  54 S14G22    29.71F
MOUNT PLEASANT SUNNY     46  29  52 SW13      29.67F
MUSKEGON       CLOUDY    41  31  67 S17G25    29.69F
SOUTH HAVEN    CLOUDY    43  32  64 SW15G21   29.72R
$$
MIZ016>042-072100-
NORTHERN LOWER MICHIGAN

CITY           SKY/WX    TMP DP  RH WIND       PRES   REMARKS
ALPENA         CLOUDY    38  29  70 S15G24    29.67F WCI  29
BEAVER ISLAND  CLOUDY    39  32  77 SW9G18    29.59F WCI  32
BELLAIRE       CLOUDY    43  32  63 S6        29.61F
CADILLAC       CLOUDY    40  31  69 SW15G21   29.60S WCI  32
CHARLEVOIX     CLOUDY    40  32  70 S5        29.63F
FRANKFORT      MOSUNNY   40  32  72 SW15G28   29.61F WCI  32
GAYLORD        MOSUNNY   39  29  67 S12       29.60F WCI  32
GRAYLING       MOSUNNY   40  29  65 S8G17     29.62F
HARBOR SPRINGS CLOUDY    39  31  72 S3        29.61F
HOUGHTON LAKE  PTSUNNY   40  29  64 S10       29.63F WCI  33
MANISTEE       CLOUDY    41  28  60 S15G23    29.63F
OSCODA         CLOUDY    40  30  67 S9        29.70S WCI  34
PELLSTON       CLOUDY    36  32  85 SE7       29.62F WCI  30
ROGERS CITY    CLOUDY    36  30  79 SE8       29.65F WCI  30
TRAVERSE CITY  PTSUNNY   45  30  55 VRB7      29.59F
$$
MIZ007>008-015-072100-
EASTERN UPPER MICHIGAN

CITY           SKY/WX    TMP DP  RH WIND       PRES   REMARKS
KINROSS        CLOUDY    34  32  93 SE16      29.62F WCI  23
MACKINAC ISLAN CLOUDY    34  34 100 SE7       29.62F FOG     WCI  28
NEWBERRY       CLOUDY    34  33  95 S16       29.56S FOG     WCI  23
S. S. MARIE    CLOUDY    30  27  88 SE14G22   29.63F FOG     WCI  19
MUNISING         N/A     36  32  85 S8        29.51F WCI  30
$$
MIZ004>006-011>014-085-072100-
CENTRAL UPPER MICHIGAN

CITY           SKY/WX    TMP DP  RH WIND       PRES   REMARKS
MANISTIQUE     CLOUDY    36  33  87 S9        29.56S WCI  29
ESCANABA       CLOUDY    36  30  80 S6        29.54F WCI  31
MENOMINEE      CLOUDY    39  28  65 W6        29.56R WCI  35
SAWYER-GWINN   CLOUDY    32  30  93 SW9       29.50S FOG     WCI  24
$$
MIZ001>003-009>011-084-072100-
WESTERN UPPER MICHIGAN

CITY           SKY/WX    TMP DP  RH WIND       PRES   REMARKS
IRON MOUNTAIN  CLOUDY    35  30  82 W9        29.50S HAZE    WCI  28
HOUGHTON       LGT SNOW  33  30  88 S5        29.46F FOG     WCI  29
COPPER HARBOR    N/A     33  32  96 SW3       29.49F
IRONWOOD       CLOUDY    34  32  93 SW8       29.43S WCI  27
$$

ABBREVIATIONS USED IN REMARKS
   TC - TEMPERATURE IN CELSIUS
  WCI - WIND CHILL INDEX
   HX - HEAT INDEX
  VSB - VISIBILITY





USA.gov is the U.S. government's official web portal to all federal, state and local government web resources and services.